Regional Weather Roundup
Issued by NWS

Home | Current Version | Previous Version | Text Only | Print | Product List | Glossary Off
Versions: 1 2 3 4 5 6 7 8 9 10 11 12 13 14 15 16 17 18 19 20 21 22 23 24 25 26 27 28 29 30 31 32 33 34 35 36 37 38 39 40 41 42 43 44 45 46 47 48 49 50

000
ASUS43 KFSD 181010
RWRSD

WEATHER ROUNDUP FOR SOUTH DAKOTA
NATIONAL WEATHER SERVICE SIOUX FALLS SD
500 AM CDT THU SEP 18 2014

NOTE: "FAIR" INDICATES FEW OR NO CLOUDS BELOW 12,000 FEET WITH NO
SIGNIFICANT WEATHER AND/OR OBSTRUCTIONS TO VISIBILITY.


SDZ001>005-009-010-012>017-181100-
NORTHWEST AND NORTH CENTRAL SOUTH DAKOTA

CITY           SKY/WX    TMP DP  RH WIND       PRES   REMARKS
BUFFALO          N/A     55  50  83 SE8       29.81F
FAITH            N/A     54  47  77 SE12      29.89F
MOBRIDGE       CLEAR     51  48  89 E9        29.91F
$$

SDZ012>016-024>037-041>051-057-063-072>074-181100-
SOUTHWEST AND SOUTH CENTRAL SOUTH DAKOTA

CITY           SKY/WX    TMP DP  RH WIND       PRES   REMARKS
RAPID CTY ARPT CLEAR     53  50  89 SE5       29.90F
PIERRE         MOCLDY    52  48  86 E9        29.90F
CUSTER         CLEAR     50  46  86 NW3       30.02S
ELLSWORTH AFB  CLEAR     54  52  91 S6        29.89F
PHILIP         PTCLDY    53  50  89 E5        29.90S
PINE RIDGE     CLEAR     56  54  93 W6        29.92S
WINNER         FAIR      60  55  83 SE9       29.92F
$$

SDZ004>011-016>023-039-040-181100-
NORTHEAST SOUTH DAKOTA

CITY           SKY/WX    TMP DP  RH WIND       PRES   REMARKS
ABERDEEN       CLEAR     44  44 100 N3        29.97F
WATERTOWN      NOT AVBL
SISSETON         N/A     42  42 100 CALM      29.99S
$$

SDZ017-020-022-023-036>040-048>070-181100-
SOUTHEAST SOUTH DAKOTA

CITY           SKY/WX    TMP DP  RH WIND       PRES   REMARKS
SIOUX FALLS    CLEAR     54  51  90 E5        29.98S
HURON          CLEAR     52  50  93 CALM      29.95S
CHAMBERLAIN    PTCLDY    54  52  94 E5        29.94S
MITCHELL       CLEAR     52  52 100 CALM      29.96S FOG
YANKTON        CLEAR     55  54  94 E8        29.96R
$$

ABBREVIATIONS USED IN REMARKS
   TC - TEMPERATURE IN CELSIUS
  WCI - WIND CHILL INDEX
   HX - HEAT INDEX
  VSB - VISIBILITY




USA.gov is the U.S. government's official web portal to all federal, state and local government web resources and services.